Lobo

Go HERE for most recent data if this page is not up to date.

Jump to table bottom
Date/Time Temp deg F RH % 24 Hr Snow (in) Snow Depth (in) H2O (in)
07/18 15:00 65.8 33 "NAN" -0.0 0.00
07/18 14:00 68.9 28 "NAN" -0.2 0.00
07/18 13:00 70.5 28 "NAN" -0.0 0.00
07/18 12:00 69.1 30 "NAN" -0.3 0.00
07/18 11:00 65.9 35 "NAN" -0.3 0.00
07/18 10:00 63.5 44 "NAN" 0.0 0.00
07/18 09:00 63.6 43 "NAN" 0.0 0.00
07/18 08:00 61.3 33 "NAN" -0.5 0.00
07/18 07:00 60.3 35 "NAN" -0.8 0.00
07/18 06:00 57.9 36 "NAN" -0.8 0.00
07/18 05:00 57.6 36 "NAN" -0.6 0.00
07/18 04:00 58.9 34 "NAN" -0.4 0.00
07/18 03:00 56.8 43 "NAN" -0.8 0.00
07/18 02:00 57.4 43 "NAN" -0.9 0.00
07/18 01:00 58.3 46 "NAN" -0.9 0.00
07/18 00:00 58.6 42 "NAN" -0.8 0.00
07/17 23:00 59.8 42 "NAN" -0.7 0.00
07/17 22:00 60.4 38 "NAN" -0.8 0.00
07/17 21:00 62.1 30 "NAN" 1.6 0.00
07/17 20:00 62.8 37 "NAN" -0.2 0.00
07/17 19:00 65.3 33 "NAN" 3.1 0.00
07/17 18:00 66.3 30 "NAN" 3.2 0.00
07/17 17:00 66.4 26 "NAN" 0.4 0.00
07/17 16:00 64.7 29 "NAN" 0.0 0.00
07/17 15:00 70.6 27 "NAN" -0.1 0.00
07/17 14:00 67.1 24 "NAN" -0.4 0.00
07/17 13:00 68.3 36 "NAN" -0.7 0.00
07/17 12:00 68.3 28 "NAN" -0.5 0.00
07/17 11:00 65.5 34 "NAN" -0.1 0.00
07/17 10:00 62.2 40 "NAN" -0.3 0.00
07/17 09:00 60.1 37 "NAN" -0.0 0.00
07/17 08:00 58.1 39 "NAN" 0.1 0.00
07/17 07:00 57.2 33 "NAN" 0.2 0.00
07/17 06:00 55.1 41 "NAN" -0.4 0.00
07/17 05:00 55.2 48 "NAN" -1.0 0.00
07/17 04:00 55.7 44 "NAN" -0.0 0.00
07/17 03:00 56.2 43 "NAN" 0.0 0.00
07/17 02:00 58.5 40 "NAN" -0.5 0.00
07/17 01:00 60.7 26 "NAN" -0.5 0.00
07/17 00:00 60.5 27 "NAN" -0.5 0.00
.